Wind_Speed
14 16 17 19 20 22 22 22 21 21 22 23 23 24 24 24 25 28 32 33 33 32 32 31 32 34 35 36 37 39 40 40 40 39 38 38 37 38 39 40 40 40 40 40
14 15 15 15 15 15 16 19 21 22 24 24 25 25 25 26 26 28 31 31 30 30 30 30 32 32 33 36 39 40 42 42 41 40 41 40 40 39 38 39 39 40 41 41
13 11 11 10 10 12 15 18 20 22 25 27 28 28 29 30 30 29 29 28 27 27 28 31 33 33 35 38 40 40 41 41 41 41 41 40 40 39 38 38 39 40 41 42
10 9 8 9 11 13 15 17 18 18 21 24 28 30 28 28 27 26 25 26 26 26 28 31 34 34 36 38 38 38 39 39 39 40 40 40 40 39 38 38 38 39 40 41
9 8 8 9 10 12 13 15 15 15 16 18 22 25 22 21 21 22 23 24 25 26 29 32 33 35 36 35 35 35 36 37 38 38 39 39 39 39 38 38 38 38 39 40
8 8 8 7 8 10 11 12 12 13 14 16 17 20 18 18 18 19 20 21 23 25 28 30 32 33 33 34 34 34 35 36 37 38 38 39 39 39 39 39 39 39 39 40
7 7 6 5 5 6 8 8 8 9 11 12 14 18 17 17 17 18 19 22 23 25 28 29 31 32 32 33 33 33 34 35 36 37 38 39 40 40 40 40 40 40 40 40
4 5 6 5 5 6 6 6 6 5 6 8 13 16 17 18 19 21 23 25 26 27 28 28 30 30 31 32 32 33 33 34 35 36 37 38 39 40 41 41 41 41 41 41
3 4 6 7 7 6 6 6 7 7 6 7 11 16 18 20 22 24 26 27 27 28 28 29 30 31 32 33 34 34 34 34 35 36 37 38 39 39 40 41 42 42 42 42
6 4 6 7 8 7 8 8 9 9 10 8 8 12 18 21 24 26 27 28 28 28 29 30 31 32 33 34 35 35 35 35 36 36 37 38 38 39 40 40 41 41 42 42
8 6 5 7 8 9 9 10 11 13 14 15 14 12 18 21 23 25 27 28 30 31 31 32 33 33 34 34 35 36 37 37 37 37 37 37 37 38 38 39 39 40 40 41
8 7 6 8 9 10 12 13 15 17 18 19 20 19 21 23 25 27 29 31 33 34 35 35 35 36 35 35 36 37 37 37 38 38 37 37 36 36 36 36 37 38 38 38
7 8 8 9 11 13 15 16 18 20 21 21 23 26 26 27 28 30 32 34 35 37 37 38 37 37 37 37 37 38 38 38 38 38 37 36 35 35 35 35 35 35 36 35
8 9 10 11 13 15 16 18 20 23 25 25 26 28 28 28 30 32 34 35 37 39 40 40 40 40 39 39 38 39 39 39 38 38 37 37 35 35 34 34 34 33 32 32
12 12 13 14 16 18 19 20 22 25 27 28 28 28 29 30 32 34 36 38 40 41 42 43 44 44 43 42 41 40 40 40 38 38 37 36 35 34 33 33 32 31 29 28
16 16 16 17 19 21 22 24 25 26 27 27 29 30 31 34 36 39 41 43 44 46 46 47 47 46 46 46 44 43 41 40 39 38 37 36 35 34 32 31 30 28 27 25
18 19 18 18 20 22 25 25 25 26 27 28 30 33 35 38 41 44 46 48 49 50 50 51 51 50 50 49 48 45 43 41 40 39 37 36 35 33 32 31 29 27 24 23
19 19 19 19 20 23 26 26 26 27 29 30 32 36 39 42 44 47 50 52 53 54 55 55 55 54 54 53 51 49 47 43 41 39 37 35 35 33 31 29 27 25 22 21
23 23 24 25 26 26 26 27 29 31 33 33 36 40 44 47 49 51 54 56 58 59 59 60 59 58 57 56 54 52 49 45 42 39 37 35 34 32 30 28 26 23 20 18
26 27 28 29 31 31 30 28 30 35 39 39 43 47 50 52 55 56 57 59 60 61 62 62 62 61 60 58 55 53 50 47 43 40 37 36 34 32 31 28 25 22 19 18
29 29 30 31 33 35 35 35 38 40 44 47 50 53 55 58 60 62 64 65 66 66 66 66 65 64 61 59 55 53 51 48 45 41 39 37 35 32 30 27 24 21 19 17
29 30 31 32 34 36 38 41 43 45 48 52 54 57 60 62 65 66 68 69 69 69 69 67 65 63 60 58 56 54 51 49 46 43 41 38 35 32 29 26 24 21 20 17
28 30 32 35 37 40 43 45 47 50 53 56 58 61 64 67 69 70 70 71 71 70 69 66 63 60 57 55 54 53 51 49 48 45 42 39 36 32 29 26 24 22 20 18
31 34 36 39 41 43 46 48 51 54 57 60 63 66 68 70 71 71 72 71 68 66 64 61 58 55 52 51 51 51 50 48 48 46 44 41 38 34 30 28 25 23 22 20
34 37 39 41 44 46 48 51 54 57 60 63 65 68 70 71 70 69 67 63 61 58 55 53 50 49 48 47 47 47 47 48 46 46 44 40 37 34 31 29 27 25 23 22
37 38 41 43 45 48 51 54 57 60 63 65 67 68 68 68 66 63 60 56 53 51 48 46 45 45 45 45 44 43 44 45 45 46 44 40 37 35 33 30 27 26 25 24
Wind_Direction
202 209 214 223 227 231 236 241 240 238 241 246 250 255 262 268 276 280 277 276 278 283 289 295 299 301 300 299 298 296 293 290 287 285 284 282 281 280 279 279 279 279 279 280
191 198 210 217 221 225 229 235 232 229 235 240 244 251 260 267 274 273 271 273 279 286 293 298 299 299 296 297 298 296 294 292 290 288 286 284 283 280 278 278 278 278 278 278
197 198 201 208 216 223 230 237 236 233 233 240 248 254 261 267 270 269 270 275 280 286 292 296 298 297 296 296 296 295 293 292 291 291 289 287 285 283 281 279 278 277 277 277
210 210 214 221 231 236 242 249 251 248 241 239 249 255 258 264 267 269 270 275 280 286 292 294 294 295 296 296 295 294 294 294 293 292 290 290 289 287 285 283 281 279 279 278
223 227 235 240 246 251 254 260 262 260 254 249 251 261 265 266 271 272 273 278 283 287 288 291 295 297 298 297 295 294 294 294 294 293 292 291 290 289 287 286 284 282 281 280
229 240 247 254 260 264 266 266 266 265 261 255 256 261 268 275 281 284 282 287 288 290 293 297 299 300 301 301 300 298 297 296 295 294 293 292 290 289 288 287 286 284 283 282
234 240 246 253 267 276 282 280 272 262 261 261 263 267 275 284 289 291 291 294 295 298 300 302 304 305 306 307 306 304 301 300 298 296 294 292 290 289 288 287 286 285 284 284
242 240 247 257 276 299 305 302 300 286 265 260 265 271 279 285 289 293 297 300 302 304 307 309 310 311 312 312 312 311 308 305 302 299 297 295 293 290 289 288 287 285 284 284
302 268 264 270 283 294 299 305 309 309 298 286 275 280 284 289 294 297 300 304 308 312 315 315 315 315 314 313 313 313 312 310 307 304 301 299 297 294 292 290 288 287 286 285
337 320 285 276 275 277 286 298 305 311 310 302 286 291 293 292 295 298 303 308 312 316 317 316 316 317 317 316 316 315 315 313 311 309 306 302 299 296 294 292 291 289 287 286
325 324 309 291 283 280 287 297 303 309 314 311 308 308 300 297 298 301 306 310 313 315 314 314 315 317 317 317 316 315 314 313 312 311 310 306 303 300 297 295 293 292 290 288
326 328 318 304 298 299 300 304 302 301 304 305 305 305 298 300 303 307 311 312 312 312 312 313 313 313 314 313 312 312 312 312 312 312 311 309 306 303 301 299 297 295 293 291
330 329 325 313 308 307 306 305 302 299 300 301 302 300 303 305 309 311 311 310 308 308 308 308 309 309 309 309 308 308 309 310 311 311 310 309 307 305 303 302 301 298 295 294
331 325 320 312 304 301 300 299 297 295 296 296 295 295 302 306 308 307 305 304 303 303 304 304 304 304 304 305 305 305 305 307 308 308 308 307 306 305 304 304 304 302 299 297
323 319 312 306 300 299 299 296 295 293 294 293 295 297 302 304 304 302 300 299 299 299 300 300 300 301 302 302 302 302 303 304 305 306 305 305 305 305 304 304 304 303 302 300
319 316 311 307 301 301 298 298 300 299 298 297 298 300 302 301 300 297 296 295 295 296 296 297 297 298 298 299 300 300 301 301 302 303 302 302 302 302 303 304 303 301 301 301
316 313 309 304 301 300 299 304 304 302 298 296 295 295 295 293 292 291 292 292 293 294 295 296 296 297 298 298 298 299 298 298 298 299 298 299 299 298 299 300 301 299 298 298
312 308 306 306 305 307 307 308 307 304 299 297 295 293 292 291 291 292 294 295 296 296 296 296 297 296 296 295 295 295 295 294 293 293 293 293 295 294 294 297 296 295 294 294
313 314 316 317 316 314 311 312 309 303 298 298 296 293 292 293 294 293 294 295 296 296 295 294 294 293 292 291 291 290 289 289 288 288 288 289 290 289 289 290 290 289 288 289
318 319 319 319 316 313 311 311 305 301 300 300 297 295 296 297 296 296 295 294 293 292 292 292 291 291 290 289 288 286 284 282 281 280 281 282 282 282 282 282 282 281 279 281
319 319 317 315 312 310 311 308 304 301 299 298 298 298 299 299 299 299 298 297 297 296 295 294 293 291 290 288 285 283 279 276 274 272 272 273 273 273 274 274 273 272 270 270
317 315 312 310 307 304 305 302 301 300 300 299 300 300 300 299 299 298 298 298 298 297 297 295 293 291 289 286 282 280 275 271 267 265 265 265 265 265 265 265 264 262 260 258
313 310 307 306 304 304 304 303 303 302 302 301 301 300 300 300 300 300 300 299 299 299 297 296 294 291 288 285 281 277 272 266 261 258 256 256 256 256 256 255 252 251 249 246
312 310 308 307 306 305 305 304 304 304 303 303 303 302 302 302 301 301 301 300 299 298 297 295 293 291 287 284 281 275 267 261 257 253 250 248 247 246 246 245 242 241 240 237
311 309 308 307 307 307 306 306 306 305 305 304 303 302 301 301 301 301 300 300 300 299 298 296 294 292 290 287 283 275 267 259 253 248 245 243 241 238 238 237 234 231 231 229
312 311 310 309 310 309 309 309 308 307 306 305 304 303 303 303 303 303 303 304 303 303 302 300 298 297 294 289 283 277 269 258 250 244 239 238 237 232 230 230 227 225 224 223
Height
5879 5883 5883 5886 5888 5890 5892 5893 5895 5896 5896 5896 5896 5896 5896 5897 5897 5896 5893 5891 5890 5890 5889 5888 5886 5883 5879 5875 5871 5867 5864 5859 5857 5855 5852 5851 5849 5849 5847 5846 5845 5844 5842 5841
5878 5879 5881 5882 5884 5886 5887 5888 5889 5890 5890 5890 5890 5891 5891 5891 5890 5888 5886 5885 5885 5884 5883 5882 5880 5877 5873 5869 5865 5860 5856 5851 5848 5845 5843 5842 5841 5840 5839 5838 5836 5835 5833 5831
5876 5878 5878 5880 5881 5882 5883 5883 5884 5885 5886 5886 5886 5887 5886 5885 5884 5883 5881 5880 5879 5879 5878 5876 5873 5870 5866 5862 5858 5853 5848 5844 5839 5836 5834 5832 5830 5829 5829 5828 5826 5824 5822 5820
5874 5875 5877 5877 5878 5878 5879 5879 5880 5880 5882 5882 5882 5881 5881 5879 5878 5877 5876 5875 5874 5873 5871 5869 5866 5863 5859 5855 5850 5845 5840 5836 5832 5828 5825 5823 5821 5820 5818 5817 5815 5814 5812 5810
5872 5873 5874 5875 5875 5875 5875 5875 5875 5875 5876 5876 5876 5874 5875 5873 5872 5871 5870 5869 5868 5867 5865 5862 5859 5855 5851 5847 5842 5837 5833 5828 5824 5820 5817 5814 5812 5810 5808 5807 5805 5804 5802 5800
5871 5871 5872 5872 5872 5872 5871 5871 5871 5870 5870 5871 5870 5869 5868 5867 5866 5865 5864 5863 5861 5859 5857 5854 5851 5847 5842 5837 5833 5828 5824 5820 5817 5813 5809 5806 5803 5801 5799 5797 5795 5793 5792 5790
5869 5870 5870 5870 5869 5869 5868 5868 5868 5867 5866 5866 5865 5863 5863 5861 5860 5859 5858 5856 5854 5852 5849 5846 5842 5838 5833 5828 5824 5820 5816 5812 5808 5804 5801 5797 5794 5792 5789 5787 5785 5783 5781 5779
5868 5868 5868 5867 5867 5866 5865 5865 5865 5864 5863 5862 5860 5858 5858 5856 5854 5852 5850 5848 5846 5844 5841 5838 5833 5829 5824 5820 5815 5811 5807 5803 5800 5796 5792 5788 5785 5781 5779 5776 5774 5772 5770 5768
5866 5867 5866 5866 5865 5864 5863 5862 5862 5861 5860 5859 5857 5854 5852 5850 5848 5846 5844 5841 5839 5836 5833 5829 5825 5821 5816 5812 5808 5804 5800 5796 5791 5787 5783 5779 5775 5771 5768 5765 5762 5760 5758 5756
5865 5865 5865 5864 5863 5862 5861 5860 5859 5857 5856 5855 5854 5851 5849 5846 5843 5841 5838 5835 5833 5830 5826 5822 5818 5814 5810 5805 5800 5796 5792 5788 5783 5779 5774 5770 5766 5762 5758 5755 5752 5749 5747 5744
5863 5863 5863 5862 5860 5859 5859 5858 5855 5854 5852 5851 5849 5851 5845 5842 5839 5836 5833 5830 5827 5824 5820 5816 5811 5807 5803 5798 5793 5788 5784 5780 5775 5771 5766 5761 5757 5753 5749 5745 5742 5739 5736 5733
5863 5862 5861 5860 5859 5857 5856 5854 5853 5851 5849 5847 5844 5846 5839 5836 5833 5830 5827 5824 5820 5816 5812 5808 5804 5800 5796 5791 5786 5781 5776 5772 5767 5762 5758 5753 5748 5744 5740 5736 5732 5729 5725 5722
5862 5861 5860 5858 5858 5855 5853 5851 5849 5846 5844 5841 5839 5838 5832 5830 5827 5824 5821 5817 5812 5808 5804 5800 5796 5792 5788 5783 5779 5774 5768 5764 5759 5754 5749 5745 5740 5736 5732 5728 5723 5719 5716 5712
5860 5859 5858 5857 5854 5851 5849 5847 5844 5841 5838 5835 5833 5830 5827 5824 5821 5818 5814 5809 5805 5801 5796 5792 5787 5783 5779 5775 5770 5765 5760 5755 5751 5746 5741 5737 5732 5728 5724 5720 5715 5711 5707 5704
5858 5856 5854 5852 5849 5847 5844 5842 5840 5836 5832 5829 5826 5823 5821 5818 5814 5810 5806 5801 5797 5792 5787 5782 5777 5772 5768 5764 5760 5756 5751 5746 5742 5737 5733 5728 5724 5720 5716 5712 5708 5704 5700 5696
5854 5852 5850 5848 5844 5841 5838 5836 5833 5830 5826 5822 5819 5816 5813 5810 5805 5800 5795 5790 5786 5781 5776 5771 5766 5761 5757 5752 5748 5745 5740 5736 5732 5728 5724 5720 5716 5712 5708 5704 5701 5697 5694 5691
5850 5848 5846 5843 5840 5836 5833 5830 5827 5823 5819 5816 5813 5810 5806 5801 5796 5790 5785 5779 5774 5768 5763 5758 5753 5748 5744 5739 5735 5732 5729 5725 5721 5718 5714 5711 5707 5704 5701 5697 5694 5691 5688 5685
5846 5843 5840 5837 5835 5830 5828 5823 5819 5815 5811 5808 5804 5799 5794 5789 5784 5777 5771 5765 5759 5753 5748 5743 5738 5734 5729 5725 5721 5718 5715 5713 5710 5707 5704 5701 5698 5695 5693 5690 5687 5685 5682 5680
5840 5837 5833 5829 5826 5823 5820 5815 5810 5806 5801 5799 5793 5788 5782 5776 5771 5765 5758 5751 5744 5738 5732 5727 5722 5718 5713 5709 5707 5704 5701 5699 5697 5695 5693 5691 5689 5687 5685 5683 5681 5679 5677 5675
5833 5829 5826 5822 5818 5814 5813 5809 5803 5798 5791 5787 5781 5775 5768 5762 5756 5751 5744 5737 5730 5723 5716 5710 5705 5700 5695 5691 5689 5687 5685 5684 5683 5682 5681 5680 5678 5677 5676 5675 5674 5673 5671 5670
5826 5822 5819 5815 5810 5805 5802 5798 5793 5789 5783 5775 5767 5761 5753 5746 5739 5732 5724 5717 5709 5702 5696 5689 5684 5679 5674 5671 5669 5668 5666 5666 5666 5667 5667 5667 5667 5667 5667 5666 5666 5666 5665 5665
5820 5816 5812 5807 5802 5799 5793 5787 5782 5776 5769 5761 5753 5746 5738 5730 5721 5713 5705 5697 5689 5682 5675 5668 5662 5657 5653 5649 5647 5647 5646 5647 5649 5650 5652 5653 5654 5655 5656 5657 5657 5658 5659 5660
5814 5810 5804 5800 5796 5789 5782 5775 5768 5761 5754 5746 5738 5729 5720 5711 5702 5693 5685 5677 5668 5660 5653 5646 5640 5636 5631 5627 5625 5624 5625 5626 5629 5632 5635 5638 5641 5643 5644 5646 5648 5650 5652 5653
5807 5801 5796 5790 5784 5778 5771 5763 5756 5747 5739 5730 5720 5710 5700 5691 5682 5673 5665 5656 5648 5640 5632 5625 5620 5615 5611 5607 5603 5601 5602 5604 5608 5613 5617 5622 5626 5630 5633 5636 5639 5641 5644 5647
5800 5794 5787 5780 5774 5766 5759 5751 5742 5733 5724 5714 5703 5693 5682 5672 5663 5654 5645 5637 5628 5620 5613 5606 5601 5596 5592 5588 5584 5581 5581 5584 5588 5593 5599 5605 5610 5616 5621 5625 5629 5632 5636 5639
5791 5785 5778 5770 5763 5755 5747 5738 5728 5718 5708 5697 5686 5675 5664 5652 5641 5632 5624 5616 5609 5602 5595 5589 5584 5578 5574 5569 5566 5563 5562 5564 5569 5575 5582 5589 5596 5603 5609 5614 5619 5623 5628 5632